Regional Weather Roundup
Issued by NWS

Home | Current Version | Previous Version | Text Only | Print | Product List | Glossary On
Versions: 1 2 3 4 5 6 7 8 9 10 11 12 13 14 15 16 17 18 19 20 21 22 23 24 25 26 27 28 29 30 31 32 33 34 35 36 37 38 39 40 41 42 43 44 45 46 47 48 49 50
000
ASUS44 KJAN 221710
RWRMS

MISSISSIPPI HOURLY WEATHER ROUNDUP
NATIONAL WEATHER SERVICE JACKSON MS
1200 PM CDT MON MAY 22 2017

NOTE: "FAIR: INDICATES FEW OR NO CLOUDS BELOW 12,000 FEET WITH NO
SIGNIFICANT WEATHER AND/OR OBSTRUCTIONS TO VISIBILITY.

MSZ001>002-007>008-010>013-018>021-025>028-034>036-221800-
NORTHWEST MISSISSIPPI

CITY           SKY/WX    TMP DP  RH WIND       PRES   REMARKS
CLARKSDALE       N/A     70  54  56 MISG      30.08F
CLEVELAND      FAIR      70  57  64 E5        30.07F
GREENWOOD      CLOUDY    72  61  68 E5        30.07S
GREENVILLE     CLOUDY    70  54  56 NE9       30.06F
OLIVE BRANCH   CLOUDY   N/A N/A N/A E9        30.07F
OXFORD         FAIR      72  55  56 NE8       30.10R
TUNICA         CLOUDY    70  54  56 NE9       30.10S
WINONA         FAIR      71  60  68 NE8       30.07S
$$

MSZ003>006-009-014>017-022>024-029>033-037>039-221800-
NORTHEAST MISSISSIPPI

CITY           SKY/WX    TMP DP  RH WIND       PRES   REMARKS
COLUMBUS AFB   CLOUDY    74  67  77 NE6       30.05F
CORINTH        FAIR      72  55  56 NE5G13    30.08F
GOLDN TRIANGLE CLOUDY    72  61  68 NE9       30.02F
STARKVILLE     PTSUNNY   72  63  73 N5        30.08S
TUPELO         CLOUDY    73  58  59 NE6       30.07F
$$

MSZ040-058-221800-
CENTRAL MISSISSIPPI

CITY           SKY/WX    TMP DP  RH WIND       PRES   REMARKS
JACKSON INTL   CLOUDY    73  63  70 N8        30.05F
JACKSON HAWKNS PTSUNNY   72  62  71 CALM      30.06F
MADISON        FAIR      70  63  78 CALM      30.05F
MERIDIAN KEY   CLOUDY    77  69  76 SE6       30.04F
MERIDIAN NAS   PTSUNNY   76  67  73 NW5       30.05S
VICKSBURG VKS  SUNNY     70  63  78 N5        30.04F
$$

MSZ059>079-221800-
SOUTH MISSISSIPPI

CITY           SKY/WX    TMP DP  RH WIND       PRES   REMARKS
COLUMBIA       CLOUDY    72  68  88 E5        30.08F
HATTIESBURG    CLOUDY    72  67  84 N5        30.05F
LAUREL         CLOUDY    69  69 100 CALM      30.05F
MCCOMB         CLOUDY    71  65  81 SE3       30.06S
NATCHEZ        LGT RAIN  68  66  93 NE8       30.05F
PINE BELT      NOT AVBL
$$

MSZ080>082-221800-
COASTAL MISSISSIPPI

CITY           SKY/WX    TMP DP  RH WIND       PRES   REMARKS
BAY ST LOUIS   MOSUNNY   75  68  78 CALM      30.04S
BILOXI         CLOUDY    78  68  71 N3        30.03R
PASCAGOULA     CLOUDY    82  65  56 CALM      30.02F
GULFPORT       CLOUDY    78  67  68 NE3       30.02F
$$

LAZ007>009-015>016-023>026-221800-
NORTHEAST LOUISIANA

CITY           SKY/WX    TMP DP  RH WIND       PRES   REMARKS
BASTROP        LGT RAIN  64  63  98 CALM      30.08F
TALLULAH/VBURG LGT RAIN  68  63  84 NW3       30.07F
VIDALIA        PTSUNNY   69  67  92 NE7       30.04F
$$



USA.gov is the U.S. government's official web portal to all federal, state and local government web resources and services.